Location: Unspecified
(0.0000°N, 0.0000°E)
Time: 23:37:29
(UTC+00:00)

Vanguard 2 - Pass Details

Date: 03 October 2020
Orbit: 554 x 2937 km, 32.9° (Epoch: 28 October)

Event Time Altitude Azimuth Distance (km) Brightness Sun altitude
Rises 14:35:21 0° 252° (WSW) 3,603 11.6 48.2°
Reaches altitude 10° 14:39:02 10° 227° (SW) 3,036 11.3 47.3°
Maximum altitude 14:43:08 15° 195° (SSW) 3,091 11.0 46.3°
Drops below altitude 10° 14:48:19 10° 163° (SSE) 3,995 11.2 45.0°
Sets 14:54:40 0° 143° (SE) 5,581 11.7 43.4°
